Buckland, AK

4:32 PM AKDT on August 26, 2016 (GMT -0800)
Buckland

Weather History for PABL - October, 2012

Change the Weather History Date:

Thursday, October 25, 2012

  Actual Average (PASK) Record (PASK)
Temperature  
Mean Temperature 22 °F -  
Max Temperature 28 °F 19 °F 39 °F (2002)
Min Temperature 15 °F 11 °F -13 °F (1996)
Degree Days  
Heating Degree Days 44    
Moisture  
Dew Point 18 °F    
Average Humidity 79    
Maximum Humidity 93    
Minimum Humidity 69    
Precipitation  
Precipitation 0.00 in - - ()
Sea Level Pressure  
Sea Level Pressure 30.60 in    
Wind  
Wind Speed 7 mph (SSE)    
Max Wind Speed 12 mph    
Max Gust Speed -    
Visibility 10 miles    
Events      
Averages and records for this station are not official NWS values.
T = Trace of Precipitation, MM = Missing Value Source: NWS Daily Summary

Daily Weather History Graph

Daily Weather History Graph

Search for Another Location

Airport or City:

Trip Planner

Search our weather history database for the weather conditions in past years. The results will help you decide how hot, cold, wet, or windy it might be!

Date:

Astronomy

Oct. 25, 2012 Rise Set
Actual Time 10:17 AM AKDT 6:38 PM AKDT
Civil Twilight 9:21 AM AKDT 7:33 PM AKDT
Nautical Twilight 8:21 AM AKDT 8:33 PM AKDT
Astronomical Twilight 7:22 AM AKDT 9:32 PM AKDT
Moon 5:38 PM AKDT (10/25) 5:04 AM AKDT (10/25)
Length of Visible Light 10h 11m
Length of Day
8h 20m
Waxing Gibbous, 85% of the Moon is Illuminated
Oct 25
Waxing Gibbous
Oct 29
Full
Nov 6
Last Quarter
Nov 13
New
Nov 20
First Quarter

Hourly Weather History & Observations

Time (AKDT) Temp. Windchill Dew Point Humidity Pressure Visibility Wind Dir Wind Speed Gust Speed Precip Events Conditions
12:16 AM 15.8 °F 6.1 °F 12.2 °F 86% 30.71 in 10.0 mi South 6.9 mph - N/A   Clear
12:36 AM 15.8 °F 8.6 °F 14.0 °F 93% 30.71 in 10.0 mi South 4.6 mph - N/A   Clear
12:56 AM 17.6 °F 7.3 °F 14.0 °F 86% 30.70 in 10.0 mi South 8.1 mph - N/A   Clear
1:16 AM 17.6 °F 9.3 °F 14.0 °F 86% 30.70 in 10.0 mi South 5.8 mph - N/A   Clear
1:36 AM 17.6 °F 10.7 °F 14.0 °F 86% 30.70 in 10.0 mi South 4.6 mph - N/A   Clear
1:56 AM 17.6 °F 10.7 °F 15.8 °F 93% 30.70 in 10.0 mi South 4.6 mph - N/A   Clear
2:16 AM 19.4 °F 11.5 °F 15.8 °F 86% 30.70 in 10.0 mi South 5.8 mph - N/A   Clear
2:36 AM 19.4 °F 10.4 °F 14.0 °F 80% 30.69 in 10.0 mi South 6.9 mph - N/A   Clear
2:56 AM 19.4 °F 10.4 °F 14.0 °F 80% 30.69 in 10.0 mi SSE 6.9 mph - N/A   Clear
3:16 AM 17.6 °F 10.7 °F 15.8 °F 93% 30.69 in 10.0 mi South 4.6 mph - N/A   Clear
3:36 AM 19.4 °F 9.5 °F 15.8 °F 86% 30.69 in 10.0 mi SSE 8.1 mph - N/A   Clear
3:56 AM 19.4 °F 9.5 °F 15.8 °F 86% 30.69 in 10.0 mi SSE 8.1 mph - N/A   Clear
4:16 AM 19.4 °F 7.2 °F 15.8 °F 86% 30.67 in 10.0 mi SSE 11.5 mph - N/A   Clear
4:36 AM 19.4 °F 8.6 °F 14.0 °F 80% 30.67 in 10.0 mi South 9.2 mph - N/A   Clear
4:56 AM 19.4 °F 9.5 °F 14.0 °F 80% 30.67 in 10.0 mi SSE 8.1 mph - N/A   Clear
5:16 AM 19.4 °F 11.5 °F 14.0 °F 80% 30.66 in 10.0 mi South 5.8 mph - N/A   Clear
5:36 AM 19.4 °F 11.5 °F 12.2 °F 74% 30.66 in 10.0 mi South 5.8 mph - N/A   Clear
5:56 AM 19.4 °F 11.5 °F 14.0 °F 80% 30.66 in 10.0 mi South 5.8 mph - N/A   Partly Cloudy
6:16 AM 19.4 °F 9.5 °F 14.0 °F 80% 30.65 in 10.0 mi SSE 8.1 mph - N/A   Mostly Cloudy
6:36 AM 19.4 °F 9.5 °F 14.0 °F 80% 30.64 in 10.0 mi SSE 8.1 mph - N/A   Mostly Cloudy
6:56 AM 19.4 °F 11.5 °F 15.8 °F 86% 30.65 in 10.0 mi South 5.8 mph - N/A   Scattered Clouds
7:16 AM 19.4 °F 9.5 °F 15.8 °F 86% 30.64 in 10.0 mi South 8.1 mph - N/A   Partly Cloudy
7:36 AM 19.4 °F 10.4 °F 15.8 °F 86% 30.64 in 10.0 mi SSE 6.9 mph - N/A   Partly Cloudy
7:56 AM 19.4 °F 11.5 °F 15.8 °F 86% 30.64 in 10.0 mi South 5.8 mph - N/A   Scattered Clouds
8:16 AM 19.4 °F 10.4 °F 15.8 °F 86% 30.64 in 10.0 mi South 6.9 mph - N/A   Mostly Cloudy
8:36 AM 19.4 °F 9.5 °F 15.8 °F 86% 30.64 in 10.0 mi South 8.1 mph - N/A   Overcast
8:56 AM 21.2 °F 11.7 °F 15.8 °F 80% 30.64 in 10.0 mi South 8.1 mph - N/A   Overcast
9:16 AM 21.2 °F 11.7 °F 17.6 °F 86% 30.63 in 10.0 mi South 8.1 mph - N/A   Overcast
9:36 AM 21.2 °F 10.9 °F 17.6 °F 86% 30.63 in 10.0 mi South 9.2 mph - N/A   Overcast
9:56 AM 21.2 °F 11.7 °F 17.6 °F 86% 30.62 in 10.0 mi SSE 8.1 mph - N/A   Overcast
10:16 AM 23.0 °F 13.9 °F 15.8 °F 74% 30.62 in 10.0 mi SSE 8.1 mph - N/A   Overcast
10:36 AM 21.2 °F 10.1 °F 15.8 °F 80% 30.62 in 10.0 mi SSE 10.4 mph - N/A   Overcast
10:56 AM 21.2 °F 10.9 °F 15.8 °F 80% 30.61 in 10.0 mi South 9.2 mph - N/A   Overcast
11:16 AM 21.2 °F 13.6 °F 17.6 °F 86% 30.62 in 10.0 mi South 5.8 mph - N/A   Overcast
11:36 AM 21.2 °F 12.6 °F 17.6 °F 86% 30.61 in 10.0 mi SSE 6.9 mph - N/A   Overcast
12:16 PM 23.0 °F 13.9 °F 17.6 °F 80% 30.60 in 10.0 mi South 8.1 mph - N/A   Overcast
12:36 PM 23.0 °F 14.7 °F 17.6 °F 80% 30.61 in 10.0 mi South 6.9 mph - N/A   Overcast
12:56 PM 24.8 °F 16.1 °F 19.4 °F 80% 30.60 in 10.0 mi SE 8.1 mph - N/A   Overcast
1:16 PM 24.8 °F 16.9 °F 17.6 °F 74% 30.60 in 10.0 mi SSE 6.9 mph - N/A   Overcast
1:36 PM 24.8 °F 16.1 °F 17.6 °F 74% 30.60 in 10.0 mi SSE 8.1 mph - N/A   Overcast
1:56 PM 24.8 °F 16.1 °F 19.4 °F 80% 30.59 in 10.0 mi SSE 8.1 mph - N/A   Overcast
2:16 PM 26.6 °F 17.5 °F 19.4 °F 74% 30.58 in 10.0 mi SE 9.2 mph - N/A   Overcast
2:36 PM 26.6 °F 18.2 °F 19.4 °F 74% 30.57 in 10.0 mi SE 8.1 mph - N/A   Overcast
2:56 PM 26.6 °F 19.1 °F 19.4 °F 74% 30.57 in 10.0 mi SSE 6.9 mph - N/A   Overcast
3:16 PM 26.6 °F 18.2 °F 19.4 °F 74% 30.58 in 10.0 mi SE 8.1 mph - N/A   Overcast
3:36 PM 26.6 °F 16.8 °F 19.4 °F 74% 30.56 in 10.0 mi SE 10.4 mph - N/A   Overcast
3:56 PM 26.6 °F 17.5 °F 19.4 °F 74% 30.56 in 10.0 mi SE 9.2 mph - N/A   Overcast
4:16 PM 26.6 °F 19.1 °F 19.4 °F 74% 30.56 in 10.0 mi SE 6.9 mph - N/A   Overcast
4:36 PM 28.4 °F 20.4 °F 19.4 °F 69% 30.55 in 10.0 mi SE 8.1 mph - N/A   Overcast
4:56 PM 28.4 °F 20.4 °F 19.4 °F 69% 30.54 in 10.0 mi SE 8.1 mph - N/A   Overcast
5:16 PM 28.4 °F 22.2 °F 19.4 °F 69% 30.54 in 9.0 mi SSE 5.8 mph - N/A   Overcast
5:36 PM 28.4 °F 23.3 °F 19.4 °F 69% 30.55 in 10.0 mi SE 4.6 mph - N/A   Overcast
5:56 PM 28.4 °F 19.1 °F 19.4 °F 69% 30.52 in 10.0 mi ESE 10.4 mph - N/A   Overcast
6:16 PM 28.4 °F 21.2 °F 19.4 °F 69% 30.54 in 10.0 mi SE 6.9 mph - N/A   Overcast
6:36 PM 28.4 °F 22.2 °F 19.4 °F 69% 30.54 in 10.0 mi ESE 5.8 mph - N/A   Overcast
6:56 PM 28.4 °F 21.2 °F 19.4 °F 69% 30.54 in 10.0 mi ESE 6.9 mph - N/A   Overcast
7:16 PM 28.4 °F 22.2 °F 21.2 °F 74% 30.53 in 10.0 mi SE 5.8 mph - N/A   Overcast
7:36 PM 28.4 °F 22.2 °F 19.4 °F 69% 30.53 in 10.0 mi SE 5.8 mph - N/A   Overcast
7:56 PM 28.4 °F - 21.2 °F 74% 30.53 in 10.0 mi Calm Calm - N/A   Overcast
8:16 PM 28.4 °F 22.2 °F 21.2 °F 74% 30.53 in 10.0 mi SE 5.8 mph - N/A   Overcast
8:36 PM 28.4 °F 23.3 °F 21.2 °F 74% 30.52 in 10.0 mi SE 4.6 mph - N/A   Overcast
8:56 PM 28.4 °F 23.3 °F 21.2 °F 74% 30.52 in 10.0 mi ESE 4.6 mph - N/A   Overcast
9:16 PM 28.4 °F 22.2 °F 21.2 °F 74% 30.52 in 10.0 mi SE 5.8 mph - N/A   Overcast
9:36 PM 28.4 °F 23.3 °F 21.2 °F 74% 30.52 in 10.0 mi ESE 4.6 mph - N/A   Overcast
9:56 PM 28.4 °F 24.6 °F 21.2 °F 74% 30.52 in 10.0 mi ESE 3.5 mph - N/A   Overcast
10:16 PM 28.4 °F 23.3 °F 21.2 °F 74% 30.50 in 10.0 mi SE 4.6 mph - N/A   Overcast
10:36 PM 28.4 °F 24.6 °F 21.2 °F 74% 30.50 in 10.0 mi SE 3.5 mph - N/A   Overcast
10:56 PM 28.4 °F 24.6 °F 21.2 °F 74% 30.51 in 10.0 mi ESE 3.5 mph - N/A   Overcast
11:16 PM 28.4 °F - 21.2 °F 74% 30.51 in 10.0 mi Calm Calm - N/A   Overcast
11:36 PM 28.4 °F - 21.2 °F 74% 30.51 in 10.0 mi Calm Calm - N/A   Overcast
11:56 PM 28.4 °F - 21.2 °F 74% 30.51 in 10.0 mi Calm Calm - N/A   Overcast